Location: Cabeza Gorda
(40.0667°N, 4.9667°W)
Time: 02:37:07
(UTC+00:00)

Daily predictions for brighter satellites

Satellite Brightness Start Highest point End
(mag) Time Altitude Azimuth Time Altitude Azimuth Time Altitude Azimuth
Cosmos 2278 Rocket 4.1 04:55:52 10° SSE 05:00:33 28° ESE 05:05:16 10° NE
BREEZE-M DEB (TANK) 3.9 05:05:39 79° NW 05:05:46 80° NNW 05:19:27 10° ENE
Cosmos 1833 Rocket 3.0 05:09:13 47° N 05:10:40 62° ENE 05:16:12 10° SE
ARIANE 6 FM1 Upper Stage 3.9 05:14:12 38° ENE 05:14:12 38° ENE 05:17:23 10° ESE
Cosmos 1943 Rocket 3.0 05:18:51 10° S 05:24:08 49° ESE 05:29:25 10° NE
BREEZE M DEB (TANK) 3.9 05:24:16 26° NNE 05:24:16 26° NNE 05:28:53 10° E
IRS-1D 3.6 05:25:19 10° NNE 05:30:40 84° ESE 05:35:59 10° SSW
FengYun 1-2 T 4.2 05:26:37 10° N 05:32:05 58° WNW 05:32:06 58° WNW
ATLAS 2AS CENTAUR R/B 4.3 05:27:00 12° NNW 05:32:06 27° NE 05:37:40 10° E
Cosmos 1932 4.4 05:35:20 35° SW 05:38:08 68° NW 05:44:39 10° NNE
Cosmos 1515 Rocket 3.4 05:37:39 63° NNW 05:38:20 84° W 05:42:42 10° S
ATLAS CENTAUR R/B 3.6 05:43:03 10° NNE 05:43:37 10° NE 05:44:12 10° NE
COSMO-SKYMED 1 2.7 05:42:51 10° SSE 05:46:55 67° ENE 05:50:06 16° N
Cosmos 2074 Rocket 4.1 05:42:23 10° S 05:48:40 79° E 05:54:59 10° N
Helios 1A Rocket 4.1 05:48:57 10° SE 05:51:59 33° ENE 05:55:03 10° N
Cosmos 1302 Rocket 4.4 05:52:29 40° W 05:52:39 40° WSW 05:57:31 10° S
Meteor 2-13 Rocket 4.4 05:46:31 10° N 05:52:40 90° W 05:58:44 10° S
Meteor 1-23 Rocket 4.4 05:53:14 32° NW 05:55:18 45° W 06:00:36 10° SSW
TIMED 4.3 05:56:40 10° SSW 06:00:52 64° WNW 06:05:05 10° NNE
CZ-4 R/B 3.8 05:57:15 10° N 06:01:57 58° WNW 06:06:44 10° SSW
CENTAUR R/B 4.5 05:57:47 10° SSE 06:02:01 26° ESE 06:06:59 10° NE
Atlas Centaur 2 4.0 05:57:51 10° SW 06:02:41 28° SSE 06:08:25 10° ESE
Okean 3 Rocket 4.0 06:00:20 10° SSW 06:04:24 38° WNW 06:08:31 10° N
Okean 2 3.1 06:04:08 28° NNW 06:06:00 62° W 06:09:47 10° S
IGS 5A 3.6 06:02:04 10° NNE 06:06:02 69° ESE 06:09:58 10° S
Cosmos 1805 Rocket 3.4 06:02:48 10° SSW 06:07:12 68° W 06:11:36 10° N
Nadezhda 3 Rocket 4.3 06:01:19 10° N 06:07:34 72° E 06:13:51 10° SSE
SKYMED 2 4.0 06:06:07 10° SSW 06:10:11 39° W 06:11:44 29° NW
Sich 1 3.5 06:08:33 10° SW 06:12:23 34° WNW 06:16:13 10° NNW
USA 32 4.4 06:07:58 10° S 06:13:08 69° E 06:18:21 10° N
BREEZE-M DEB (TANK) 4.3 06:11:39 27° W 06:13:30 43° SSW 06:23:39 10° SE
SeaSat 1 3.2 06:08:42 10° NE 06:13:31 54° ESE 06:18:17 10° S
RUBIN 8/PSLV 4.4 06:10:56 10° N 06:15:05 63° WNW 06:19:14 10° SSW
GEOS 3 Rocket 3.8 06:09:58 10° SE 06:15:09 75° NE 06:20:02 12° NNW
Cosmos 1500 Rocket 3.6 06:11:29 10° SSW 06:15:42 54° W 06:20:01 10° N
Cosmos 1269 Rocket 3.9 06:15:01 10° SSW 06:20:17 79° WNW 06:25:36 10° NNE
Cosmos 1408 Rocket 3.9 06:17:13 10° SSW 06:21:18 40° WNW 06:25:23 10° N
Cosmos 1992 Rocket 4.4 06:19:26 19° NW 06:22:44 39° WSW 06:27:32 10° S
DMSP B5D1-3 4.5 06:17:50 10° SSE 06:22:54 90° WNW 06:27:58 10° NNW
SJ 16-02 4.4 06:21:07 10° SE 06:23:59 18° E 06:26:52 10° NE
Cosmos 2154 Rocket 4.0 06:19:50 10° SSW 06:26:05 62° W 06:32:20 10° N
Cosmos 921 Rocket 3.6 06:26:39 10° SW 06:30:35 34° WNW 06:34:30 10° N
Tiangong 1.1 06:30:53 10° SSE 06:32:07 12° SE 06:33:21 10° ESE
MOS 1 Rocket 3.8 06:32:27 10° NNE 06:36:54 58° E 06:41:08 10° S
Cosmos 1758 3.4 06:35:23 10° SSW 06:38:56 43° W 06:42:30 10° N
Cosmos 1140 Rocket 3.5 06:34:02 10° SW 06:39:00 55° WNW 06:44:03 10° N
Cosmos 1763 Rocket 4.4 06:37:13 10° N 06:42:06 47° ENE 06:46:59 10° SE
Cosmos 2278 Rocket 2.6 06:39:07 10° SW 06:44:23 40° WNW 06:49:42 10° N
Cosmos 2082 Rocket 2.4 06:38:42 10° NNW 06:44:24 76° ENE 06:50:05 10° SSE
Landsat 7 3.9 06:40:18 10° NNE 06:44:58 78° E 06:49:37 10° S
DELTA 2 R/B(2) 3.9 06:44:27 11° WSW 06:47:47 71° S 06:49:42 10° E
ARIANE 5 R/B 3.2 06:45:37 10° NNE 06:50:40 59° ESE 06:55:37 10° S
Cosmos 1484 Rocket 3.2 06:48:39 10° N 06:51:38 29° WNW 06:54:38 10° SW
SMAP 3.0 06:47:04 10° N 06:51:45 80° WNW 06:56:24 10° SSW
ARIANE 6 FM1 Upper Stage 4.2 06:50:14 13° W 06:52:19 18° WSW 06:55:06 10° SSW
Timation 2 Rocket 4.4 06:47:09 10° SW 06:53:21 41° WNW 06:59:23 10° NNE
Cosmos 1833 Rocket 4.1 06:50:57 12° WNW 06:53:57 17° W 06:57:28 10° SW
CZ-2D R/B 2.9 06:52:52 10° NNE 06:55:59 76° ESE 06:59:03 10° S
Gbstr 26 Del rocket 4.5 06:49:18 10° W 06:56:28 48° NNW 07:02:36 10° NE
Cosmos 1862 Rocket 3.5 06:55:47 10° N 07:00:07 75° W 07:04:23 10° S
Meteor 2-19 Rocket 4.5 06:54:37 10° N 07:00:42 87° W 07:06:45 10° S
Lacrosse 4 Rocket 1.3 06:57:03 10° SW 07:00:57 55° WNW 07:04:48 10° NNE
Cosmos 540 Rocket 4.0 06:56:12 10° NNW 07:01:14 61° ENE 07:06:15 10° SSE
CBERS-1 4.3 06:59:15 10° N 07:04:05 46° WNW 07:08:54 10° SW
AQUARIUS 4.3 07:01:31 10° NNE 07:05:57 82° ESE 07:10:20 10° S
USA 234 3.3 06:59:28 10° NE 07:06:03 83° NW 07:12:37 10° SW
Cosmos 1943 Rocket 3.2 07:03:45 10° WSW 07:08:05 23° NW 07:12:27 10° N
Cosmos 1656 Rocket 3.8 07:03:14 10° SSW 07:08:54 89° ESE 07:14:35 10° NNE
Meteor 1-15 Rocket 4.5 07:05:30 10° S 07:11:16 85° E 07:17:10 10° N
SJ-6F 4.5 07:10:29 10° NNE 07:14:28 82° ESE 07:18:23 10° S
Cosmos 1707 Rocket 3.7 07:11:55 10° NNW 07:16:06 50° W 07:20:16 10° SSW
Cosmos 407 Rocket 3.6 07:11:08 10° SW 07:16:06 52° WNW 07:21:10 10° N
YAOGAN 1 4.2 07:12:09 10° NNE 07:16:11 40° E 07:20:11 10° SSE
